Coimbatore International Airport

Jump to: basic info | weather | frequencies | runways | comments

Related pages: nearby airports | nearby navaids | notams | map

Basic information (top)

Codes: CJB VOCB
Location: lon 11.030000, lat 77.043404, elev 1,324 ft / 404 m msl
Status: medium_airport
Scheduled airline service: yes
Links: Wikipedia Mobile

Weather (top)

Current conditions (rec'd 2014/04/23 16:30Z):

VOCB 231630Z 23010KT 5000 HZ FEW015 29/24 Q1012 NOSIG

Airport forecast (rec'd 2014/04/22 12:00Z):

TAF VOCB 220900Z 2212/2318 20010KT 6000 SCT015 PROB30 
      TEMPO 2212/2215 SCT015 FEW025CB SCT080 
      BECMG 2218/2220 VRB03KT 3000 HZ 
      BECMG 2304/2306 09010KT 6000

Frequencies (top)

Verify before use: may be inaccurate or out of date.

APP: 120.05 MHz (AFTER 0430 HRS UTC)
ATIS: 128.05 MHz ()
TWR: 118.15 MHz ()

Runways (top)

05/23: 8,480 x 150 ft (2,585 x 46 m) — paved — lighted

Latest comments (top)

re: Flying Club: Dude, i been looking for someone ... [read]

more international flights: is there any near future plan to have ... [read]

Flying Club: Anyone interested in starting a flying ... [read]

More... (top)

See also NOTAMs and nearby airports and navaids, or visit the Coimbatore International Airport page at the main OurAirports website..